TimeCDT,TemperatureF,Dew PointF,Humidity,Sea Level PressureIn,VisibilityMPH,Wind Direction,Wind SpeedMPH,Gust SpeedMPH,PrecipitationIn,Events,Conditions,WindDirDegrees,DateUTC
12:15 AM,59.0,55.4,88,30.16,10.0,Calm,Calm,-,N/A,,Mostly Cloudy,0,2013-08-18 05:15:00
12:35 AM,59.0,55.4,88,30.16,7.0,Calm,Calm,-,N/A,,Mostly Cloudy,0,2013-08-18 05:35:00
12:55 AM,59.0,55.4,88,30.16,10.0,Calm,Calm,-,N/A,,Scattered Clouds,0,2013-08-18 05:55:00
1:15 AM,59.0,53.6,82,30.16,10.0,South,3.5,-,N/A,,Scattered Clouds,170,2013-08-18 06:15:00
1:35 AM,59.0,53.6,82,30.16,10.0,SSE,4.6,-,N/A,,Scattered Clouds,160,2013-08-18 06:35:00
1:55 AM,59.0,53.6,82,30.16,10.0,SSE,4.6,-,N/A,,Clear,160,2013-08-18 06:55:00
2:15 AM,57.2,53.6,88,30.16,10.0,SSE,3.5,-,N/A,,Clear,160,2013-08-18 07:15:00
2:35 AM,57.2,53.6,88,30.16,10.0,Calm,Calm,-,N/A,,Clear,0,2013-08-18 07:35:00
2:55 AM,57.2,51.8,82,30.16,10.0,Calm,Calm,-,N/A,,Clear,0,2013-08-18 07:55:00
3:15 AM,57.2,53.6,88,30.16,10.0,Calm,Calm,-,N/A,,Clear,0,2013-08-18 08:15:00
3:35 AM,55.4,51.8,88,30.16,10.0,Calm,Calm,-,N/A,,Clear,0,2013-08-18 08:35:00
3:55 AM,55.4,53.6,94,30.16,7.0,Calm,Calm,-,N/A,,Clear,0,2013-08-18 08:55:00
4:15 AM,55.4,51.8,88,30.16,10.0,Calm,Calm,-,N/A,,Clear,0,2013-08-18 09:15:00
4:35 AM,53.6,51.8,94,30.16,7.0,Calm,Calm,-,N/A,,Clear,0,2013-08-18 09:35:00
4:55 AM,53.6,51.8,94,30.16,2.5,Calm,Calm,-,N/A,,Clear,0,2013-08-18 09:55:00
5:15 AM,53.6,51.8,94,30.17,1.5,Calm,Calm,-,N/A,,Mist,0,2013-08-18 10:15:00
5:35 AM,53.6,50.0,88,30.17,1.5,Calm,Calm,-,N/A,,Mist,0,2013-08-18 10:35:00
5:55 AM,51.8,50.0,94,30.17,1.2,Calm,Calm,-,N/A,,Scattered Clouds,0,2013-08-18 10:55:00
6:15 AM,51.8,50.0,94,30.18,0.8,Calm,Calm,-,N/A,,Mist,0,2013-08-18 11:15:00
6:35 AM,53.6,50.0,88,30.18,0.2,Calm,Calm,-,N/A,Fog,Fog,0,2013-08-18 11:35:00
6:55 AM,51.8,50.0,94,30.18,1.2,Calm,Calm,-,N/A,,Mist,0,2013-08-18 11:55:00
7:15 AM,55.4,51.8,88,30.19,5.0,Calm,Calm,-,N/A,,Clear,0,2013-08-18 12:15:00
7:35 AM,57.2,53.6,88,30.18,7.0,Calm,Calm,-,N/A,,Clear,0,2013-08-18 12:35:00
7:55 AM,60.8,57.2,88,30.18,10.0,SSE,3.5,-,N/A,,Clear,150,2013-08-18 12:55:00
8:15 AM,62.6,55.4,77,30.18,10.0,SSE,5.8,-,N/A,,Clear,150,2013-08-18 13:15:00
8:35 AM,64.4,55.4,73,30.18,10.0,SSE,5.8,-,N/A,,Clear,150,2013-08-18 13:35:00
8:55 AM,66.2,55.4,68,30.18,10.0,SSE,4.6,-,N/A,,Clear,150,2013-08-18 13:55:00
9:15 AM,68.0,55.4,64,30.18,10.0,South,3.5,-,N/A,,Clear,180,2013-08-18 14:15:00
9:35 AM,69.8,57.2,64,30.17,10.0,SSE,4.6,-,N/A,,Clear,150,2013-08-18 14:35:00
9:55 AM,71.6,57.2,60,30.17,10.0,South,4.6,-,N/A,,Clear,170,2013-08-18 14:55:00
10:15 AM,71.6,57.2,60,30.17,10.0,NE,3.5,-,N/A,,Clear,40,2013-08-18 15:15:00
10:35 AM,73.4,55.4,53,30.17,10.0,ESE,4.6,-,N/A,,Clear,110,2013-08-18 15:35:00
10:55 AM,75.2,55.4,50,30.17,10.0,SSE,3.5,-,N/A,,Clear,160,2013-08-18 15:55:00
11:15 AM,77.0,55.4,47,30.16,10.0,ESE,6.9,-,N/A,,Clear,120,2013-08-18 16:15:00
11:35 AM,77.0,53.6,44,30.16,10.0,South,6.9,-,N/A,,Clear,170,2013-08-18 16:35:00
11:55 AM,78.8,53.6,42,30.16,10.0,SSE,5.8,-,N/A,,Scattered Clouds,160,2013-08-18 16:55:00
12:15 PM,78.8,51.8,39,30.16,10.0,South,9.2,-,N/A,,Clear,170,2013-08-18 17:15:00
12:35 PM,78.8,50.0,36,30.15,10.0,SSE,6.9,-,N/A,,Clear,160,2013-08-18 17:35:00
12:55 PM,80.6,50.0,34,30.14,10.0,SSE,11.5,-,N/A,,Scattered Clouds,150,2013-08-18 17:55:00
1:15 PM,78.8,50.0,36,30.14,10.0,SE,6.9,-,N/A,,Scattered Clouds,130,2013-08-18 18:15:00
1:35 PM,80.6,48.2,32,30.13,10.0,South,6.9,-,N/A,,Scattered Clouds,190,2013-08-18 18:35:00
1:55 PM,80.6,50.0,34,30.12,10.0,SSE,6.9,10.4,N/A,,Scattered Clouds,160,2013-08-18 18:55:00
2:15 PM,80.6,50.0,34,30.11,10.0,South,10.4,-,N/A,,Scattered Clouds,190,2013-08-18 19:15:00
2:35 PM,80.6,50.0,34,30.11,10.0,South,9.2,17.3,N/A,,Scattered Clouds,170,2013-08-18 19:35:00
2:55 PM,80.6,50.0,34,30.10,10.0,SSE,9.2,-,N/A,,Scattered Clouds,160,2013-08-18 19:55:00
3:15 PM,80.6,50.0,34,30.10,10.0,SW,10.4,-,N/A,,Mostly Cloudy,220,2013-08-18 20:15:00
3:35 PM,80.6,50.0,34,30.11,10.0,South,11.5,-,N/A,,Mostly Cloudy,190,2013-08-18 20:35:00
3:55 PM,80.6,50.0,34,30.11,10.0,South,10.4,-,N/A,,Scattered Clouds,190,2013-08-18 20:55:00
4:15 PM,80.6,51.8,37,30.11,10.0,South,8.1,-,N/A,,Scattered Clouds,170,2013-08-18 21:15:00
4:35 PM,82.4,50.0,32,30.11,10.0,SW,10.4,-,N/A,,Mostly Cloudy,230,2013-08-18 21:35:00
4:55 PM,80.6,50.0,34,30.10,10.0,SW,8.1,16.1,N/A,,Mostly Cloudy,230,2013-08-18 21:55:00
5:15 PM,80.6,50.0,34,30.10,10.0,SSE,6.9,-,N/A,,Mostly Cloudy,160,2013-08-18 22:15:00
5:35 PM,78.8,51.8,39,30.09,10.0,South,6.9,-,N/A,,Mostly Cloudy,180,2013-08-18 22:35:00
5:55 PM,78.8,51.8,39,30.09,10.0,South,8.1,-,N/A,,Scattered Clouds,190,2013-08-18 22:55:00
6:15 PM,80.6,51.8,37,30.08,10.0,SSW,8.1,-,N/A,,Clear,200,2013-08-18 23:15:00
6:35 PM,78.8,51.8,39,30.07,10.0,SSW,5.8,-,N/A,,Clear,200,2013-08-18 23:35:00
6:55 PM,77.0,53.6,44,30.07,10.0,South,4.6,-,N/A,,Clear,190,2013-08-18 23:55:00
7:15 PM,77.0,53.6,44,30.08,10.0,South,4.6,-,N/A,,Clear,190,2013-08-19 00:15:00
7:35 PM,73.4,55.4,53,30.08,10.0,South,3.5,-,N/A,,Clear,190,2013-08-19 00:35:00
7:55 PM,71.6,55.4,57,30.08,10.0,SSW,3.5,-,N/A,,Clear,200,2013-08-19 00:55:00
8:15 PM,69.8,59.0,68,30.07,10.0,SSE,5.8,-,N/A,,Clear,160,2013-08-19 01:15:00
8:35 PM,66.2,59.0,78,30.07,10.0,SSE,4.6,-,N/A,,Clear,160,2013-08-19 01:35:00
8:55 PM,64.4,57.2,77,30.07,10.0,SSE,4.6,-,N/A,,Clear,150,2013-08-19 01:55:00
9:15 PM,62.6,57.2,82,30.07,10.0,SSE,4.6,-,N/A,,Clear,150,2013-08-19 02:15:00
9:35 PM,62.6,57.2,82,30.07,10.0,SSE,4.6,-,N/A,,Clear,150,2013-08-19 02:35:00
9:55 PM,62.6,57.2,82,30.08,10.0,Calm,Calm,-,N/A,,Clear,0,2013-08-19 02:55:00
10:15 PM,60.8,55.4,82,30.07,10.0,SSE,5.8,-,N/A,,Clear,160,2013-08-19 03:15:00
10:35 PM,62.6,57.2,82,30.07,10.0,South,5.8,-,N/A,,Clear,170,2013-08-19 03:35:00
10:55 PM,62.6,57.2,82,30.07,10.0,SSE,8.1,-,N/A,,Clear,160,2013-08-19 03:55:00
11:15 PM,60.8,57.2,88,30.07,10.0,SSE,5.8,-,N/A,,Clear,160,2013-08-19 04:15:00
11:35 PM,60.8,55.4,82,30.08,10.0,South,5.8,-,N/A,,Clear,170,2013-08-19 04:35:00
11:55 PM,60.8,55.4,82,30.08,10.0,South,5.8,-,N/A,,Clear,170,2013-08-19 04:55:00